Wind_Speed
6 8 8 8 6 4 3 3 1 0 1 1 2 3 4 6 9 10 10 9 7 8 7 9 7 7 10 11 13 15 13 10 7 6 7 11 22 26 26 27 25 22 20 19 18 17 15 15 15 14 13 12 11 10 11 11 10 9 11 11 10 12 12 13 13 13 14 14 13 13 13 12 12 13 13 14 14 15 15 17 17 16 16 16 16 16 16 16 16 16 16 16 17 16 14 15 16
8 9 9 9 5 1 1 1 2 0 0 2 2 2 9 8 9 10 10 10 8 10 9 9 11 12 12 13 16 18 17 16 17 12 11 20 24 25 27 26 24 23 21 20 18 17 15 15 15 14 13 11 9 8 9 11 11 10 10 11 11 11 11 12 13 13 14 14 13 14 14 13 13 13 14 14 13 14 15 17 17 16 16 16 16 15 14 15 15 14 16 17 17 16 14 15 16
10 9 9 7 1 2 1 1 1 1 1 1 2 2 6 7 9 11 10 12 12 13 11 10 11 12 12 15 16 17 15 16 21 16 14 23 20 22 27 25 25 22 21 20 18 18 16 16 15 14 13 11 9 8 10 11 11 10 11 11 11 11 10 11 11 12 13 14 14 14 14 14 14 13 14 14 13 14 15 16 17 16 16 16 15 15 14 14 14 14 16 17 17 16 15 16 16
11 11 7 4 2 2 0 1 1 1 1 1 0 2 3 9 12 11 11 13 13 13 12 11 10 10 13 17 15 15 15 14 20 17 13 20 20 23 26 25 24 21 22 21 19 19 17 17 16 15 13 12 11 9 11 12 11 12 11 10 11 11 10 10 11 12 13 13 14 14 14 14 14 13 13 13 14 14 14 16 16 16 16 16 15 14 13 13 14 15 16 17 16 16 15 16 16
11 13 8 6 2 1 0 1 0 0 1 1 1 4 7 11 12 11 12 13 12 12 11 10 10 11 13 14 11 10 14 14 18 20 17 22 24 24 24 23 22 21 21 21 21 20 18 18 16 15 14 14 12 11 12 12 12 12 11 9 10 12 9 10 11 11 12 12 13 14 13 14 13 14 13 13 14 14 14 15 16 15 15 15 15 14 13 13 14 15 16 16 16 15 15 16 17
10 9 6 4 2 1 1 1 0 1 1 2 2 7 10 11 12 12 13 13 13 13 13 11 13 14 12 12 11 11 14 15 17 20 22 25 25 23 22 22 21 21 21 21 20 19 19 18 16 15 14 14 13 11 12 12 12 11 10 9 10 11 10 10 11 11 13 12 15 15 13 14 13 13 14 14 15 15 15 15 15 15 14 14 15 15 14 13 14 15 16 16 16 15 15 16 16
6 1 3 3 1 2 0 1 1 1 0 2 1 8 11 10 11 12 13 13 12 12 13 13 14 14 11 11 12 14 18 18 17 21 25 26 25 23 21 21 22 22 22 21 20 20 18 17 15 14 14 13 12 12 11 12 12 11 10 10 10 10 10 11 11 12 12 13 16 15 13 15 14 13 13 13 14 14 14 15 15 14 14 14 14 16 16 14 14 16 15 15 15 14 14 15 15
4 1 0 1 0 1 0 1 0 0 1 4 4 7 10 10 10 10 11 11 11 11 12 15 16 14 14 13 12 15 20 22 23 26 27 26 24 22 20 20 22 22 22 21 21 20 18 16 14 14 14 13 12 12 11 12 11 11 11 10 11 10 10 11 11 12 13 14 15 14 13 15 16 14 13 13 14 14 14 15 15 14 14 14 14 15 15 14 15 16 14 14 14 13 13 14 15
2 2 1 1 2 0 1 0 1 1 0 4 4 7 8 9 10 9 10 11 12 11 13 15 15 15 16 17 14 14 20 26 27 27 26 24 22 20 19 19 21 22 21 21 20 19 17 15 14 15 14 13 13 12 12 12 11 11 11 10 11 10 10 11 12 13 13 14 13 14 13 14 17 16 14 14 14 14 14 14 15 14 14 14 14 14 15 15 15 15 14 13 13 13 13 13 14
2 2 0 0 1 0 2 1 1 2 2 2 3 6 4 6 9 9 10 12 13 12 15 16 16 17 17 17 13 13 20 26 27 25 24 22 21 19 19 20 21 22 21 20 20 19 17 15 15 15 14 14 12 11 12 12 11 10 11 11 10 10 11 11 13 14 14 13 12 15 15 15 17 17 15 15 15 14 14 14 15 15 15 14 15 15 16 16 15 14 13 13 13 13 13 13 13
1 1 1 1 0 2 3 2 1 3 3 2 2 3 1 2 6 10 10 11 13 14 16 15 15 18 17 15 11 15 23 25 25 24 22 21 20 19 20 22 21 20 21 20 19 19 18 16 15 14 14 13 11 11 12 13 12 11 11 12 11 11 11 13 15 15 13 12 13 15 16 16 18 18 16 15 15 15 14 14 14 16 16 15 15 15 16 16 15 13 13 13 13 13 13 12 12
3 2 0 2 1 3 3 4 3 2 4 3 2 1 2 2 4 11 10 10 14 15 15 13 14 16 16 14 10 18 24 22 23 22 21 20 19 18 20 22 20 19 20 20 19 18 18 16 15 15 14 13 11 10 13 14 12 11 11 13 13 12 12 14 15 15 14 13 15 15 16 17 17 17 16 16 15 15 15 14 14 16 16 15 14 14 15 15 14 13 13 13 13 13 12 12 12
3 2 1 1 1 2 2 4 3 3 3 2 2 3 2 3 4 10 10 11 12 13 14 14 15 15 14 13 11 15 20 21 22 21 20 19 18 17 19 21 20 19 20 20 19 18 18 17 16 16 15 14 12 10 13 13 11 11 12 14 15 14 13 14 15 15 15 15 16 16 17 16 15 17 17 15 14 14 15 14 14 16 17 15 15 15 16 15 14 13 13 13 13 13 12 12 12
5 2 1 0 0 1 1 4 4 5 3 2 1 4 2 3 3 5 10 11 10 12 14 15 15 15 14 13 11 11 15 21 22 21 21 18 18 18 18 20 20 20 20 19 18 18 18 17 17 17 16 14 13 12 13 11 12 12 12 14 16 15 14 14 15 16 15 15 15 15 16 16 15 16 17 16 15 14 15 14 15 16 15 14 15 16 16 16 14 13 13 13 12 13 12 13 13
6 3 1 0 1 1 1 3 4 5 3 4 3 5 4 3 4 5 8 9 11 11 13 15 13 12 13 14 12 12 18 23 21 21 21 19 19 18 18 18 18 19 19 19 18 17 17 17 18 17 14 11 12 14 14 12 12 13 13 14 16 15 13 14 16 17 15 15 14 15 17 17 17 16 16 16 15 14 14 14 15 15 14 13 15 16 16 16 14 13 13 12 11 12 12 13 14
5 4 2 2 1 1 1 1 5 5 5 6 6 7 4 3 6 6 7 7 10 11 11 11 11 11 14 15 16 21 24 23 21 21 21 20 20 18 17 17 17 18 18 18 16 16 15 16 18 17 14 10 12 14 14 14 13 12 13 14 15 14 12 15 18 18 17 16 15 16 17 17 17 16 15 15 16 15 14 14 14 14 13 14 16 16 15 15 14 14 13 11 11 11 12 13 15
3 2 3 4 2 1 2 5 6 4 7 8 7 8 8 7 5 5 7 8 10 12 11 9 11 14 15 18 24 28 26 23 22 21 20 19 18 17 16 15 16 16 17 16 15 15 14 14 17 18 15 12 12 14 13 13 12 12 14 15 15 14 13 16 18 18 17 17 16 16 17 17 17 17 15 14 14 15 14 14 14 13 15 16 16 14 13 14 14 15 13 11 11 11 13 13 14
3 1 2 4 4 1 5 7 5 3 8 10 6 7 8 10 7 5 8 9 9 10 11 11 14 17 19 25 28 28 25 24 22 21 19 17 16 15 14 13 14 15 15 16 15 15 15 15 17 18 16 13 12 12 11 11 13 13 14 15 15 14 13 15 18 18 18 18 17 17 17 18 18 18 16 13 12 14 14 15 14 14 17 17 15 14 13 13 14 15 13 11 11 12 13 13 12
1 1 4 4 5 1 4 7 6 3 7 11 7 6 6 10 10 6 9 10 10 10 12 15 18 20 23 26 27 26 24 23 21 19 18 16 16 15 14 13 13 14 15 15 15 15 16 15 16 17 15 13 12 12 13 12 13 14 13 14 15 13 12 14 16 16 18 19 18 16 16 17 17 17 16 14 13 13 14 14 14 13 16 16 14 15 14 14 15 14 14 12 11 12 12 10 8
0 1 4 4 5 4 4 7 8 3 6 12 8 8 7 9 10 7 10 11 10 11 13 16 20 21 22 22 24 25 23 21 19 18 17 16 16 15 14 13 13 13 15 17 15 14 16 15 15 17 12 10 12 12 13 13 12 13 13 13 13 12 11 12 13 13 15 17 18 17 17 17 16 16 16 15 14 14 14 13 13 13 16 17 16 16 16 15 15 13 12 11 9 9 9 8 5
2 1 3 4 5 4 1 7 12 5 5 11 10 10 10 9 8 8 11 11 9 10 14 17 20 22 22 21 22 23 21 20 19 17 16 15 16 15 14 14 13 13 15 18 16 14 16 16 16 17 11 8 10 10 12 14 13 13 13 14 13 12 12 12 13 13 14 15 16 17 17 17 16 16 16 15 14 14 13 12 13 14 17 18 17 17 15 14 12 12 10 8 8 7 6 6 4
3 2 4 3 3 5 5 8 12 7 3 5 9 9 9 9 8 9 10 9 7 9 15 18 20 21 22 21 20 20 19 18 17 16 16 15 15 15 15 14 13 14 14 16 16 15 16 16 17 17 13 8 9 11 11 12 14 14 13 14 14 13 13 13 13 13 15 16 16 17 18 18 18 16 15 15 14 14 13 13 14 15 17 17 16 14 12 11 10 10 10 8 7 7 4 3 2
2 4 6 3 5 8 8 8 9 9 4 4 7 8 8 9 8 8 8 8 9 10 15 18 19 20 22 21 19 19 18 17 17 16 15 15 14 15 16 14 13 13 14 14 15 17 16 16 18 17 16 13 9 11 13 12 14 15 14 15 14 12 13 15 15 15 16 16 17 18 19 19 17 16 16 16 15 14 13 13 13 13 14 13 12 11 10 9 8 7 7 8 7 6 3 2 3
2 5 8 5 7 10 7 7 7 6 3 4 5 9 9 9 9 7 7 10 12 13 16 18 19 21 21 20 18 18 17 17 17 17 16 14 14 16 16 15 14 13 13 14 14 17 18 17 18 16 17 18 11 9 13 13 13 14 15 15 14 13 13 14 16 17 16 16 17 17 18 17 15 14 15 14 13 13 12 12 10 9 9 9 8 8 8 8 6 6 6 5 5 6 5 5 7
1 6 10 8 6 9 7 9 11 8 4 5 2 10 9 7 8 8 9 12 14 15 17 19 19 19 19 18 18 17 16 17 18 17 16 14 14 15 15 15 14 13 13 14 13 16 18 18 18 16 17 20 14 9 12 14 14 13 14 15 15 15 13 13 16 16 16 16 16 16 15 15 13 12 13 13 13 12 10 9 9 9 8 7 7 7 7 7 7 7 5 3 4 6 7 7 7
4 6 9 10 8 9 8 11 9 3 3 6 2 8 8 8 9 8 9 12 15 16 18 19 18 18 17 17 17 16 15 15 17 17 16 15 15 14 14 15 14 13 13 13 13 14 16 17 18 16 16 18 18 13 10 12 13 13 13 12 13 15 14 15 18 18 17 16 16 15 13 13 13 13 13 13 13 11 8 8 9 10 9 7 6 6 7 6 6 5 3 3 6 8 7 6 7
6 7 10 13 9 6 9 10 7 4 3 2 0 4 4 8 7 6 10 13 16 16 18 18 17 17 16 16 15 14 15 15 16 16 15 15 14 14 14 14 14 15 14 12 12 13 14 17 18 17 16 16 18 18 12 11 12 12 12 11 13 14 14 17 18 18 17 16 16 16 14 14 13 12 13 12 12 12 10 8 8 9 9 8 6 6 7 7 6 3 4 5 6 7 7 8 8
9 9 12 14 10 7 9 9 7 4 2 1 2 6 6 5 6 7 11 14 15 16 18 18 16 15 15 16 14 11 13 15 16 15 14 14 12 13 14 13 14 16 15 13 12 12 14 17 17 17 15 15 18 19 16 14 13 13 12 12 14 13 13 16 17 17 16 15 14 15 16 15 12 11 12 11 13 13 11 9 9 8 8 7 6 7 8 8 7 4 4 7 7 6 6 7 7
12 9 10 11 9 8 7 6 6 4 3 3 3 7 6 2 7 10 11 13 16 17 17 17 15 14 14 15 12 10 12 14 14 14 14 14 12 12 13 13 14 16 16 13 12 13 13 15 16 16 15 15 18 18 17 16 14 15 14 12 13 12 12 15 16 16 16 14 14 14 15 15 12 12 11 9 11 13 14 18 20 17 12 10 8 7 7 7 7 5 5 7 7 6 6 6 7
11 8 7 7 6 5 3 4 7 4 3 4 4 4 4 4 9 11 11 14 16 16 16 15 14 13 13 13 11 10 12 12 13 14 14 14 12 12 13 13 15 18 17 14 14 13 13 14 14 15 14 15 17 17 18 17 14 14 14 12 13 12 13 16 16 16 15 13 13 13 14 14 12 13 11 9 11 15 18 22 25 24 19 15 13 10 9 9 9 7 6 7 6 6 5 5 7
8 6 4 5 5 5 5 5 7 5 2 5 4 2 4 8 12 10 11 14 15 15 15 15 14 13 12 12 12 12 12 12 13 14 14 13 13 13 13 13 15 19 19 16 14 14 14 13 13 14 14 14 15 15 16 16 14 13 13 12 11 11 13 16 15 14 14 12 11 11 11 12 11 10 10 9 11 12 12 13 16 17 15 12 11 10 8 7 6 5 5 4 4 6 5 3 5
6 5 4 5 5 6 8 8 7 6 3 5 3 3 5 9 11 10 11 13 13 14 14 14 14 14 14 12 12 12 11 13 14 15 15 13 12 12 14 14 14 17 18 17 15 14 13 13 13 14 14 14 14 14 14 14 13 13 12 11 11 11 12 13 14 14 14 12 11 10 9 10 11 9 7 7 7 6 7 9 10 10 10 9 8 8 7 7 6 5 4 3 1 2 5 6 6
6 6 5 5 6 7 8 8 8 6 7 5 3 3 5 7 11 11 11 12 13 13 14 15 14 14 14 11 11 11 11 12 13 15 15 13 12 12 13 14 13 15 20 19 16 14 14 14 14 14 15 14 15 14 14 14 13 13 13 12 10 11 11 12 13 13 14 13 11 10 9 9 9 6 4 5 6 6 6 9 8 8 8 7 6 7 7 6 6 6 5 4 2 2 2 6 9
6 6 5 6 7 7 7 7 9 8 9 7 4 4 4 5 10 11 10 12 13 13 14 14 14 13 13 11 12 12 11 11 11 14 15 14 13 14 14 14 14 16 20 20 18 16 15 16 14 14 15 14 15 14 13 14 13 13 12 11 10 11 11 11 12 12 12 12 10 10 9 8 6 5 5 5 5 6 6 8 8 7 6 5 6 7 7 6 6 6 5 4 3 4 3 3 5
6 6 5 6 6 6 7 8 10 11 9 8 7 6 6 6 9 10 10 12 13 13 13 13 14 13 12 12 12 12 12 11 11 14 16 15 14 15 14 15 16 16 17 19 19 17 16 17 16 16 16 14 14 14 13 13 13 13 12 11 11 12 12 11 11 11 11 11 10 10 9 7 6 5 5 4 5 7 7 7 7 6 5 3 5 7 7 6 6 6 5 4 4 3 3 4 5
9 10 5 4 4 5 8 8 11 14 10 9 9 7 8 8 6 5 7 9 12 12 12 11 12 13 12 11 12 12 12 11 13 15 16 16 15 15 15 15 16 16 17 19 18 17 17 18 18 17 15 14 14 14 13 13 12 13 12 11 11 12 12 11 11 11 11 11 10 9 8 7 6 5 4 4 7 7 6 6 5 5 4 4 5 6 7 6 5 5 4 4 2 3 1 4 5
7 9 5 5 6 6 8 7 10 13 9 9 11 8 10 9 4 2 1 3 6 10 13 12 10 12 12 12 12 13 12 12 15 17 16 16 16 16 16 16 17 19 19 19 18 17 16 17 17 17 15 15 14 14 13 12 12 13 12 12 11 11 12 12 11 11 10 11 10 9 8 7 6 6 4 4 6 7 6 5 4 4 4 5 7 7 6 5 5 4 5 4 3 4 2 5 7
6 6 6 5 5 6 6 7 9 10 7 8 10 9 11 11 6 2 3 4 5 8 10 13 13 12 11 13 14 13 12 12 15 16 16 17 17 17 16 15 19 21 19 18 18 18 17 16 17 16 15 15 14 13 13 12 12 12 12 11 12 12 11 11 12 11 11 11 11 9 7 7 6 5 4 3 5 6 6 4 4 4 4 5 6 5 5 5 5 4 4 4 4 4 6 5 4
5 7 4 3 3 6 5 5 8 7 4 5 9 8 8 10 8 3 2 5 5 3 4 6 11 14 11 12 14 12 12 12 13 15 15 17 17 17 17 16 18 20 19 19 18 17 18 18 18 16 16 15 13 13 12 11 11 11 10 11 12 12 11 11 11 11 12 11 10 8 7 7 6 5 4 4 3 5 5 4 4 4 4 4 5 4 4 4 4 3 3 5 6 2 4 5 2
6 8 3 6 7 5 3 5 6 4 1 1 6 5 2 5 7 4 2 3 2 0 5 7 7 11 11 12 13 13 13 13 13 14 14 16 18 17 17 17 18 18 18 20 19 17 17 19 19 17 17 16 14 14 12 11 11 10 10 10 11 12 11 11 11 11 12 11 10 8 7 7 6 5 5 3 3 4 4 3 4 4 4 4 4 4 3 3 3 4 5 6 9 6 4 5 4
6 9 4 9 10 5 5 8 7 2 4 2 6 5 2 5 7 5 3 3 2 1 4 5 8 10 12 12 13 12 13 13 13 14 14 15 17 17 17 19 20 18 18 19 19 18 16 19 21 18 17 16 15 14 12 12 12 10 11 12 11 11 11 12 12 12 12 11 10 8 8 7 6 6 5 4 3 4 3 3 4 4 3 3 2 2 2 2 3 5 6 5 7 10 8 5 5
7 12 9 17 16 10 12 13 8 4 3 5 8 5 4 7 10 9 5 4 4 2 6 7 7 10 12 11 12 13 12 12 13 13 14 14 16 17 17 19 20 18 18 19 19 19 17 18 20 18 17 17 16 14 13 14 13 12 12 13 12 11 11 11 11 11 12 11 10 9 9 8 7 6 5 4 4 4 3 2 3 3 3 2 2 3 2 2 4 5 5 5 6 9 10 6 6
8 8 9 22 19 14 16 14 8 4 2 5 9 5 3 6 10 10 7 6 6 4 7 9 6 8 11 11 11 13 13 13 13 13 14 14 15 16 16 18 19 18 19 20 19 20 20 19 20 19 17 17 17 16 14 14 14 13 12 12 12 12 11 11 10 10 11 11 10 10 9 8 7 7 6 5 5 4 3 2 2 3 3 2 2 3 1 2 5 6 5 6 7 8 11 10 8
7 2 11 17 14 14 16 12 6 3 1 3 8 6 2 5 8 9 9 8 7 7 9 10 6 7 11 12 12 13 14 13 13 13 14 16 15 15 16 18 18 18 19 20 21 22 21 20 20 19 18 18 17 16 16 15 14 14 13 11 11 11 11 11 11 10 10 10 10 10 9 9 8 7 6 6 5 4 3 3 2 2 2 3 2 2 1 3 6 6 6 6 6 7 10 11 9
7 2 8 8 8 12 16 11 6 6 4 3 7 9 4 3 7 7 8 9 10 10 11 11 8 8 11 14 14 14 14 14 14 13 14 16 18 16 17 17 17 18 19 19 21 23 22 21 20 19 19 18 17 17 16 15 15 14 13 12 12 11 11 12 11 11 11 10 11 11 9 9 8 6 6 6 5 5 4 4 3 2 2 3 2 1 1 3 5 6 6 6 6 5 7 9 9
3 2 3 5 6 8 11 10 7 8 6 5 8 11 5 2 7 8 9 10 11 11 10 10 9 9 11 13 15 15 13 13 13 13 14 17 20 19 17 17 17 18 18 19 22 22 21 21 20 20 19 18 18 17 15 15 16 15 13 12 12 11 12 13 12 12 11 10 11 11 10 10 9 7 6 6 6 6 5 4 4 3 3 4 2 1 2 3 4 5 5 6 6 5 6 6 6
4 2 2 5 6 6 5 6 5 5 6 7 12 16 9 3 6 10 9 9 11 11 9 10 11 12 12 12 14 14 13 13 12 13 14 17 19 20 19 18 18 18 18 19 21 21 21 21 20 20 19 18 18 17 15 15 15 15 14 13 12 12 13 13 13 12 12 11 11 11 11 10 9 8 8 7 7 7 6 5 5 4 4 4 2 1 2 3 3 4 4 5 5 5 5 4 4
8 3 3 5 5 5 5 4 4 5 6 6 8 13 11 5 4 9 10 8 12 13 11 13 14 14 12 10 13 13 12 13 12 12 13 15 16 18 19 18 17 17 17 19 20 20 21 21 21 20 18 18 18 17 16 15 15 14 14 14 13 13 14 14 14 13 12 12 11 11 11 10 9 9 9 9 8 8 7 7 5 5 5 4 3 2 2 4 4 4 4 4 4 4 4 3 3
8 3 4 6 4 4 5 5 6 6 2 2 3 5 5 3 1 9 14 13 15 14 11 13 15 14 12 10 11 11 11 11 11 10 11 12 13 16 18 17 18 16 16 19 20 20 21 21 22 21 19 19 18 17 16 15 15 14 14 15 14 14 14 13 14 14 13 13 12 12 12 11 10 10 10 10 9 9 9 8 6 5 5 4 4 3 2 3 4 5 5 3 3 3 3 2 2
8 5 6 5 3 4 6 6 6 5 1 5 4 5 3 2 1 6 14 16 15 13 10 10 12 12 11 9 8 9 11 11 10 11 11 11 13 16 17 17 19 17 17 18 19 20 21 21 21 21 19 20 19 17 17 16 15 14 14 15 14 14 14 13 14 13 13 13 13 12 12 11 11 11 11 11 10 10 10 9 8 7 6 6 5 4 3 3 3 4 5 4 3 3 2 2 1
9 8 7 6 5 5 4 4 3 2 1 3 1 3 3 2 0 1 8 14 13 12 9 8 8 8 9 8 7 8 12 11 9 11 12 12 15 17 17 18 19 18 18 19 19 19 21 22 21 21 20 20 19 18 18 17 15 15 14 14 14 14 14 13 13 13 13 13 12 12 12 11 11 10 11 11 10 11 10 10 9 8 7 7 6 6 5 5 5 4 4 3 3 3 3 3 2
8 8 8 6 5 5 3 4 2 1 2 1 1 2 1 1 1 2 8 13 12 11 9 8 8 8 6 7 7 8 10 12 11 11 11 12 16 17 18 19 19 19 18 18 20 20 20 22 22 21 21 19 20 20 19 17 16 15 15 14 14 13 13 13 13 13 13 12 12 12 11 11 11 10 10 10 10 11 11 10 10 9 8 8 7 7 6 6 7 5 5 5 3 3 4 4 2
4 7 10 8 5 5 4 4 4 4 4 1 1 3 3 3 2 3 9 12 12 12 10 10 10 9 8 7 7 6 7 10 11 11 10 12 16 17 18 19 19 20 19 18 21 21 21 23 22 22 21 20 20 20 19 18 17 16 16 15 14 13 13 12 13 13 13 12 12 12 11 11 12 11 11 10 10 11 11 10 10 9 9 9 8 8 8 7 7 6 6 6 5 4 5 4 3
4 4 6 7 6 5 4 2 3 5 3 1 3 4 4 3 1 4 9 11 12 12 10 9 10 11 10 9 8 7 7 9 10 11 11 12 16 17 18 20 20 20 18 19 22 21 22 23 22 22 22 21 20 19 19 18 17 17 16 15 15 14 13 12 12 11 12 12 11 11 11 11 12 12 11 11 11 11 11 11 11 10 10 10 9 9 8 8 8 7 7 7 6 6 4 4 4
12 6 4 5 6 6 5 3 2 4 2 1 2 3 3 1 1 6 9 9 12 13 11 10 11 12 12 10 11 10 8 9 10 11 11 12 16 18 19 19 20 21 19 19 21 20 20 22 22 23 22 21 21 19 19 19 17 16 16 16 15 14 14 13 13 12 12 12 11 11 12 12 11 12 12 12 12 12 12 11 11 10 10 10 10 9 9 9 9 8 8 7 7 8 6 5 5
14 10 7 6 5 4 4 3 3 3 2 2 2 2 2 1 3 7 10 11 12 13 13 12 11 12 12 11 11 9 7 7 9 11 11 12 16 19 18 18 20 22 21 20 21 20 19 21 21 22 22 21 21 20 19 19 17 16 16 16 16 15 14 13 13 13 13 13 12 12 12 12 11 12 13 13 12 12 12 12 11 11 11 11 11 10 10 10 10 9 9 8 8 9 8 7 6
10 8 7 6 4 4 4 3 4 3 3 3 3 2 1 2 3 5 9 11 12 14 13 11 9 10 11 10 10 9 8 6 6 9 11 12 16 18 19 17 16 20 21 21 22 21 20 20 20 21 22 21 21 20 20 19 17 16 16 16 16 15 14 14 13 13 13 13 12 12 12 12 11 12 12 12 12 12 12 12 11 11 11 11 11 11 10 11 11 10 10 8 6 8 9 7 6
10 8 7 7 5 4 5 5 6 5 5 4 2 3 2 2 2 3 5 6 8 9 9 9 9 10 10 11 10 9 9 5 4 7 11 13 15 16 18 16 11 14 17 16 17 19 19 20 19 20 22 23 21 20 20 20 18 17 16 16 16 15 14 14 13 13 13 12 12 12 13 12 12 12 12 12 12 12 12 12 11 11 11 11 12 11 10 11 11 10 10 9 8 9 8 7 7
Wind_Direction
178 162 169 192 205 218 47 40 293 126 221 324 233 146 134 147 119 111 110 113 103 106 104 91 91 81 80 84 83 62 47 56 67 95 105 133 143 142 137 134 135 132 132 134 130 122 116 110 102 99 97 101 101 98 101 101 98 98 101 100 99 102 109 111 111 111 116 125 125 120 116 115 115 108 101 97 99 107 110 110 110 109 107 106 107 108 106 104 101 101 101 99 97 98 100 98 98
183 181 194 212 200 178 30 342 300 344 148 32 265 146 120 134 120 118 122 122 113 115 111 98 97 89 87 89 85 70 59 65 81 89 109 135 139 135 135 136 135 134 134 134 129 123 118 112 108 106 104 105 100 98 98 97 99 103 107 107 109 109 113 111 112 119 123 125 123 120 115 114 114 109 103 100 102 110 115 113 111 110 108 105 107 107 102 101 103 105 102 99 98 98 98 94 94
200 204 211 206 115 25 352 340 321 340 26 103 262 5 105 124 115 116 114 111 109 107 96 88 87 87 88 83 80 82 82 80 94 101 121 138 138 134 137 135 133 134 134 131 126 122 119 115 112 110 110 108 103 104 96 97 105 109 113 116 120 115 113 112 117 125 124 122 123 122 118 116 115 112 110 108 109 114 117 114 112 112 111 108 109 108 104 103 107 107 102 101 100 99 98 94 95
214 233 236 161 26 343 51 337 293 335 42 155 68 28 121 117 112 113 110 109 105 100 93 88 79 76 83 88 88 90 97 93 102 110 122 134 132 133 136 134 133 133 132 127 121 119 117 114 111 108 110 110 106 103 98 104 109 109 115 124 122 113 114 123 128 126 120 120 121 119 116 115 114 113 113 112 111 113 118 116 114 114 112 112 111 108 107 107 107 107 105 105 104 101 99 96 98
223 252 254 131 108 288 117 291 187 302 169 189 152 135 134 119 118 118 110 109 103 102 103 99 92 88 82 86 94 97 110 109 110 114 118 125 127 131 133 133 133 130 127 120 115 116 116 113 109 108 106 105 104 100 98 100 103 106 113 116 113 115 127 136 131 120 117 117 112 109 110 112 113 116 118 116 113 114 119 118 115 114 113 114 115 112 109 108 106 107 109 108 104 101 99 100 101
225 263 297 87 101 242 126 283 163 230 208 211 184 128 128 129 124 119 112 110 107 108 104 96 94 95 84 83 96 103 115 117 114 118 121 125 128 131 131 131 127 122 120 116 113 112 113 111 109 110 106 106 108 106 103 102 105 112 115 112 115 124 135 133 124 114 111 109 105 104 110 117 117 119 121 119 116 118 121 120 117 115 116 119 120 118 113 110 108 108 108 105 103 101 100 102 104
216 236 355 48 83 223 190 278 186 199 201 324 212 128 133 137 125 122 121 117 110 109 109 108 104 96 88 91 96 96 106 114 118 122 124 127 130 131 131 130 125 120 117 115 114 112 110 109 109 110 109 110 112 112 110 109 113 120 119 116 118 120 122 121 117 112 110 103 101 111 129 132 127 123 122 122 120 119 122 123 121 117 118 119 119 117 114 111 110 110 107 104 103 102 102 103 105
213 105 136 317 309 198 212 237 153 137 28 312 273 139 137 137 125 121 121 119 111 110 110 110 107 98 95 97 95 99 105 111 117 121 123 127 130 130 131 129 123 119 116 114 114 112 109 108 108 107 108 109 107 108 108 112 116 118 116 112 111 110 112 113 110 108 108 102 103 123 145 138 129 128 126 124 122 121 123 124 123 120 118 118 118 115 113 113 113 110 107 105 104 104 104 106 107
181 245 173 310 321 68 129 201 79 67 208 268 239 137 140 142 126 120 122 117 111 112 109 108 105 100 101 98 98 105 107 112 118 121 124 127 128 130 131 127 122 119 116 114 113 112 110 107 105 103 105 103 101 103 107 113 114 116 116 111 109 111 114 111 108 106 107 113 126 138 141 134 130 130 130 129 126 124 125 125 124 121 119 120 118 114 111 112 111 108 108 106 104 104 104 106 107
90 264 223 324 319 7 131 123 80 113 215 224 141 127 147 146 129 120 119 114 114 113 106 107 105 105 107 103 105 110 114 120 122 123 126 126 127 131 126 118 117 119 118 117 115 114 111 107 102 100 99 98 99 101 105 111 113 115 113 111 111 112 113 110 107 107 116 133 145 136 130 138 136 131 133 132 128 123 124 127 126 123 121 120 117 113 111 108 106 107 107 104 103 102 103 106 108
178 252 293 282 320 315 106 125 191 149 179 156 117 138 113 140 135 121 119 115 114 114 114 116 110 108 108 103 104 116 122 126 124 123 125 126 127 128 120 114 116 119 119 119 117 116 114 109 103 100 97 96 99 103 106 107 109 110 110 111 110 109 109 106 107 114 128 138 137 128 133 146 139 132 134 133 129 126 127 127 124 123 121 119 117 113 111 108 106 108 106 104 102 101 103 105 107
232 127 164 296 323 317 83 131 195 167 149 149 210 150 46 285 154 127 128 120 119 122 122 119 115 113 110 107 113 124 127 125 123 123 123 125 125 123 118 116 119 120 119 117 116 116 114 109 105 103 102 101 101 106 107 105 107 111 110 108 107 108 107 108 114 124 129 128 131 131 139 144 135 131 133 132 130 126 125 123 122 122 122 120 119 117 112 110 109 108 106 104 104 104 106 106 109
241 145 134 286 302 311 84 134 178 189 152 179 217 88 59 248 152 131 129 123 124 122 116 118 122 119 112 113 124 129 128 125 125 124 124 124 121 119 117 117 120 121 118 115 114 114 112 110 106 100 99 104 111 111 108 113 119 116 108 104 105 107 108 113 120 124 124 125 131 134 135 134 130 130 129 128 126 123 122 121 122 122 123 122 122 121 114 112 111 109 109 107 107 107 107 107 108
243 232 203 229 218 260 167 130 163 195 169 214 182 87 232 231 135 142 133 126 119 118 125 130 125 114 115 124 130 133 130 129 130 128 125 124 121 119 117 117 118 118 114 110 111 112 113 110 104 100 97 104 117 112 107 118 122 115 107 102 103 107 114 121 119 118 121 126 130 130 127 125 127 129 126 124 123 122 121 120 121 122 123 123 124 123 117 116 115 113 113 111 111 109 107 105 104
255 275 274 243 202 208 171 122 178 207 161 200 152 120 239 221 169 166 134 122 112 123 130 129 127 121 132 139 135 137 136 135 134 130 128 125 122 119 117 117 115 115 110 107 109 110 110 109 104 103 105 112 116 109 108 115 115 112 107 101 102 111 121 121 116 117 121 124 128 128 124 124 126 126 123 121 120 120 120 120 122 124 121 122 127 126 121 120 117 115 114 113 113 111 108 105 106
260 297 305 283 284 94 299 179 186 191 168 193 144 137 211 179 172 160 137 133 122 131 128 133 141 134 141 138 131 136 137 137 134 130 127 123 121 119 119 118 117 114 107 106 109 108 107 108 107 106 110 115 111 107 109 112 110 108 106 102 104 112 120 116 113 116 119 121 124 125 123 125 125 124 122 120 120 121 122 123 124 125 123 126 131 128 124 122 119 117 115 116 116 112 109 106 109
264 313 302 281 310 85 210 208 187 175 166 172 135 155 179 143 164 163 142 139 132 135 123 133 138 130 135 129 130 135 136 136 135 131 125 123 123 123 123 123 123 116 110 110 110 111 110 108 109 108 109 108 108 110 111 112 112 109 106 105 105 111 115 111 111 116 119 121 123 125 125 126 125 123 122 120 119 119 121 123 124 125 128 131 132 129 126 122 120 118 116 117 115 109 106 107 110
264 307 280 287 323 105 196 209 198 186 160 156 143 182 179 138 150 163 141 135 139 136 123 134 132 124 123 125 132 135 136 137 137 134 129 129 130 128 129 129 127 120 114 113 114 117 114 111 111 109 109 111 112 113 113 115 116 113 109 107 107 110 110 108 112 118 119 121 125 128 126 126 125 121 118 116 114 116 119 122 124 126 129 131 131 129 125 122 120 117 115 112 108 107 106 107 108
264 284 280 297 321 296 214 209 182 193 159 147 150 194 198 146 145 158 147 145 151 142 135 138 125 118 123 129 135 135 137 140 139 137 135 137 135 134 134 132 129 124 121 118 119 117 112 114 114 110 113 120 121 119 118 117 119 116 109 109 109 108 108 108 112 118 119 121 125 127 126 125 124 120 117 114 112 113 116 121 126 127 128 127 126 123 121 122 121 119 119 117 114 111 112 113 104
122 284 297 318 317 322 263 194 156 200 163 140 152 187 191 155 145 159 151 146 152 144 138 133 124 127 133 135 136 138 141 141 140 141 140 138 134 135 134 132 131 127 123 121 122 116 113 116 113 110 117 129 127 125 124 124 124 119 115 115 114 111 109 110 113 118 120 122 126 129 131 129 127 124 121 121 119 115 113 118 123 125 127 127 126 126 124 124 124 124 125 127 127 122 123 125 126
181 279 339 330 326 10 9 151 143 177 167 141 156 172 165 155 152 156 150 143 146 141 135 133 134 138 138 139 140 142 142 141 144 145 143 139 137 138 135 133 133 126 120 120 123 119 118 118 112 111 118 131 128 129 131 133 133 124 123 122 119 117 115 117 118 119 120 121 126 133 136 133 133 130 128 130 129 125 124 123 125 127 129 130 132 129 125 123 124 124 126 133 132 129 138 136 140
144 56 49 2 7 67 94 127 144 146 101 140 161 160 148 148 153 153 154 145 140 137 134 136 139 140 141 142 143 143 144 144 148 147 144 141 142 139 134 134 130 124 121 120 125 125 123 122 119 117 121 130 124 125 128 135 139 131 126 118 114 119 120 123 123 123 125 126 130 136 137 135 135 135 134 136 134 132 131 128 129 130 129 131 134 129 122 120 122 125 128 136 130 122 130 146 169
148 81 79 74 76 97 118 127 137 120 100 198 168 146 140 141 143 147 148 137 141 137 132 137 139 140 141 141 144 146 147 148 148 147 145 145 147 139 134 135 129 126 124 123 129 132 126 123 126 123 123 127 115 115 121 129 135 135 132 121 115 120 121 123 123 124 127 131 135 137 138 136 137 137 137 136 132 127 123 122 124 128 128 129 132 129 122 118 122 128 132 136 129 121 114 124 139
202 98 95 99 97 103 115 105 75 62 120 210 169 141 141 142 139 139 136 132 142 137 131 137 138 141 142 142 147 146 149 151 148 148 147 148 147 138 134 134 129 127 125 126 131 133 129 127 130 127 127 129 117 107 120 125 125 129 130 123 123 124 120 122 124 126 130 136 138 137 137 135 137 138 138 139 130 120 115 114 116 125 128 125 126 126 123 126 135 132 135 143 134 138 142 135 129
165 108 113 118 113 103 99 82 56 18 357 327 247 145 134 137 138 138 135 127 132 135 135 138 139 143 145 146 147 147 154 151 147 150 147 146 145 137 134 133 129 131 130 130 131 129 129 129 129 129 130 131 130 116 118 123 124 127 124 122 129 126 123 128 130 131 135 140 138 133 133 137 144 141 140 141 128 119 119 122 125 130 134 140 146 135 126 137 148 136 131 145 147 151 155 154 152
69 99 115 113 119 115 99 82 73 48 8 331 297 130 126 146 142 133 129 123 128 137 138 139 144 146 148 148 147 152 154 149 149 149 145 146 146 139 135 133 133 135 131 130 130 127 128 131 131 130 127 128 133 130 124 128 131 132 124 125 136 130 132 136 132 133 135 141 142 133 132 142 150 146 143 143 134 130 143 162 161 147 137 145 151 127 124 141 150 153 166 173 160 154 154 158 158
101 105 108 111 124 121 103 103 117 121 83 342 242 117 147 154 142 129 129 131 136 141 140 142 148 148 149 146 147 156 151 149 150 146 145 146 144 142 138 137 137 133 129 129 130 129 130 130 128 129 129 127 131 132 133 130 129 132 126 129 137 133 137 137 133 134 132 136 142 138 139 145 146 146 148 146 142 149 164 173 167 148 123 126 147 130 128 146 139 146 187 175 160 155 160 162 156
117 118 113 119 135 131 116 125 146 138 98 286 196 159 170 150 139 143 138 137 141 145 144 147 151 148 149 145 150 159 147 148 150 146 149 145 146 148 139 139 137 128 130 134 133 136 134 128 126 130 132 130 130 134 136 135 135 140 140 136 132 126 127 130 132 135 132 134 138 138 142 146 147 153 158 159 156 161 169 161 153 151 122 117 149 131 114 122 119 119 166 163 155 155 168 174 161
120 127 115 113 128 131 124 120 121 122 141 226 225 154 152 126 140 147 140 141 149 151 148 150 151 149 148 146 152 153 145 151 151 151 151 146 155 153 140 143 137 128 132 138 142 141 130 124 127 129 130 132 134 137 137 139 144 142 142 142 136 129 121 122 127 132 134 134 131 134 145 149 153 160 163 161 153 154 164 166 166 166 150 129 138 139 132 148 151 147 159 161 161 161 176 188 162
125 135 123 117 120 130 169 124 111 101 123 197 239 146 136 145 153 154 145 152 159 154 152 153 150 151 149 147 154 150 149 157 154 154 151 149 162 154 144 147 136 129 132 141 147 138 126 126 129 128 131 132 133 135 134 138 140 136 138 141 141 138 128 122 124 129 133 134 133 138 145 148 152 156 154 151 160 166 169 167 163 160 154 146 150 158 168 186 183 163 154 165 170 167 187 196 158
139 139 142 166 142 148 194 164 135 127 145 213 231 141 143 150 156 159 153 164 165 154 155 155 151 154 150 151 158 151 153 162 158 154 152 158 164 152 146 145 134 132 137 143 144 134 130 132 129 129 131 127 125 128 129 133 134 134 136 136 137 134 127 126 129 133 136 138 139 134 133 142 149 150 150 158 171 174 162 144 139 143 144 140 144 148 152 163 163 151 157 169 156 156 162 134 135
172 164 180 194 153 150 176 173 166 153 162 222 234 126 136 152 160 160 162 169 163 158 161 157 156 156 152 158 161 151 157 166 160 154 157 164 159 149 148 142 137 138 140 141 140 136 132 129 130 131 129 125 124 125 125 127 128 130 132 133 135 132 127 129 134 138 139 139 138 128 126 142 145 135 138 149 145 139 127 113 112 121 123 119 119 127 132 125 117 116 132 141 97 173 168 135 129
207 211 205 180 150 158 171 176 186 162 147 190 237 134 134 161 165 163 172 168 161 169 167 159 161 158 156 164 160 153 161 166 162 158 159 159 153 151 148 142 142 139 136 137 140 139 133 132 135 133 129 127 126 125 124 125 126 128 130 133 136 133 131 132 135 139 138 136 134 130 133 141 140 128 121 123 117 114 113 111 112 112 116 115 100 107 121 119 113 99 102 123 41 341 183 149 152
212 222 205 174 166 170 169 178 185 166 157 173 189 161 144 160 168 174 179 167 170 178 169 164 165 160 162 166 160 157 166 168 161 158 157 156 155 153 147 143 139 132 133 137 139 140 137 139 140 131 129 129 128 128 127 127 129 131 133 137 138 135 135 136 139 140 135 134 134 133 134 136 138 132 113 97 99 112 114 115 118 112 111 101 87 101 112 111 106 92 87 94 56 14 9 96 137
202 230 227 166 166 180 169 174 174 168 176 179 168 162 156 163 173 181 181 173 181 183 172 170 167 162 166 168 161 160 168 167 157 159 159 157 155 151 148 143 133 131 138 139 140 139 134 135 137 132 131 132 132 132 130 132 133 135 136 137 138 137 139 140 140 140 137 138 139 134 131 135 141 137 120 98 96 109 115 116 113 110 112 94 90 103 102 91 85 82 80 68 49 358 5 61 82
190 217 232 122 145 202 185 178 168 167 182 184 173 167 164 173 183 188 183 180 190 188 176 176 170 165 170 170 162 162 169 163 158 165 163 156 155 150 147 143 135 135 138 136 138 137 128 127 131 133 136 137 136 137 137 139 139 139 140 138 140 141 141 143 142 144 145 143 142 138 135 141 143 145 148 121 104 108 119 118 114 112 105 77 75 87 88 78 71 68 59 56 8 302 347 74 86
200 210 200 171 192 197 184 173 166 173 185 187 181 172 167 172 189 231 82 116 209 204 181 179 177 171 174 170 163 167 168 160 162 167 163 156 155 151 148 148 138 130 133 136 138 138 134 134 135 136 141 143 143 146 147 147 145 144 145 145 146 143 143 145 144 148 149 145 148 146 141 147 147 148 163 141 108 109 123 120 109 103 93 78 69 75 84 69 63 58 33 38 347 325 52 89 80
219 223 188 184 198 170 162 159 167 185 194 192 185 172 174 170 172 227 70 111 218 230 195 185 182 178 180 171 164 169 167 160 163 166 163 159 156 153 151 150 141 133 137 143 144 144 141 141 141 143 147 148 149 151 150 149 148 148 151 151 148 143 147 148 146 151 149 145 152 149 144 153 152 149 157 143 107 107 122 118 102 94 91 93 82 75 78 62 59 56 27 19 339 352 45 76 82
215 240 191 107 126 124 105 133 164 188 192 188 183 172 174 167 164 175 144 172 200 246 263 225 191 183 182 171 163 169 168 162 165 166 166 161 155 155 153 147 141 140 144 145 149 150 144 144 146 147 150 152 151 150 149 148 148 150 151 150 146 144 150 149 146 151 148 146 151 151 155 159 150 148 147 132 98 98 117 117 105 97 86 92 92 82 71 53 43 51 48 13 341 343 69 73 20
215 242 205 114 150 151 109 143 154 177 245 189 162 161 173 168 169 170 184 196 149 248 286 296 241 193 182 175 166 171 171 163 167 168 166 161 156 158 157 146 142 150 152 149 152 152 147 150 152 152 153 153 151 150 149 148 146 145 148 148 143 143 147 145 143 147 147 149 153 155 164 161 149 153 152 143 119 108 118 112 103 108 99 86 83 82 75 56 37 43 59 31 3 3 71 80 35
234 246 221 134 154 168 143 146 131 111 290 285 131 138 205 199 186 185 216 198 128 227 229 268 261 203 182 179 171 173 173 166 171 171 164 162 162 162 161 151 149 159 157 152 155 153 150 152 154 156 155 150 149 150 150 150 146 135 135 140 138 138 141 143 147 150 149 154 158 161 167 163 158 164 161 152 139 128 128 107 106 113 104 97 100 97 69 69 82 56 44 37 24 17 23 60 71
255 250 198 151 153 151 135 139 132 122 251 209 153 153 197 199 193 186 199 201 179 201 204 221 240 202 187 184 175 174 173 170 176 172 163 165 165 162 162 157 157 161 157 156 158 154 152 151 153 157 155 150 151 154 153 153 152 142 136 139 142 144 146 151 157 156 156 162 165 163 166 167 165 167 165 152 146 148 144 119 119 124 118 130 130 114 102 84 94 78 49 39 42 32 21 44 77
255 271 142 140 147 142 137 143 146 152 222 179 169 188 186 190 199 186 180 193 186 188 202 206 221 205 193 189 181 177 174 174 178 173 164 166 166 163 165 165 164 161 158 160 158 152 153 153 155 157 154 153 155 156 156 153 154 154 151 149 151 155 154 159 165 159 161 168 164 159 165 171 167 165 166 158 156 159 156 154 145 137 140 146 104 100 132 111 86 79 73 57 50 50 45 55 59
244 310 108 132 143 139 141 151 159 165 159 150 179 206 211 189 196 183 175 185 184 191 203 198 203 214 198 190 188 183 179 176 176 174 167 166 168 169 172 170 167 163 161 162 155 150 153 154 155 157 154 155 158 158 158 157 157 159 161 159 158 163 160 161 164 160 165 168 159 159 165 171 172 171 169 166 166 167 170 174 166 158 161 163 162 155 147 111 98 90 87 73 55 56 62 64 58
227 153 120 140 155 149 147 156 174 172 169 186 191 199 223 191 175 172 179 190 191 193 200 194 192 213 202 192 192 187 182 180 175 174 172 167 166 173 178 172 167 165 164 160 150 148 153 154 155 155 154 157 160 161 161 162 161 162 165 161 161 165 159 159 164 163 169 169 160 163 169 170 175 177 172 171 172 175 181 181 178 186 171 168 181 175 132 123 110 106 102 92 78 67 68 61 56
206 111 159 183 185 173 158 164 183 184 197 227 190 185 203 173 161 175 189 199 197 189 195 193 187 207 211 197 193 188 181 182 176 172 177 170 165 173 178 173 170 167 164 156 147 148 153 154 156 156 157 160 161 162 165 163 163 165 165 161 160 160 157 161 165 163 167 167 162 165 170 172 178 182 177 179 182 183 188 187 187 194 184 188 199 107 122 138 119 116 109 101 100 85 78 66 56
206 138 247 236 224 227 204 189 193 198 227 231 189 183 200 212 177 186 194 196 187 175 181 190 186 197 208 203 195 188 182 182 175 174 179 173 169 173 175 175 172 165 163 157 148 150 155 156 158 158 159 162 162 165 166 161 161 164 163 162 160 156 158 163 162 161 164 167 169 169 172 178 182 186 184 184 189 190 192 194 193 193 191 195 190 124 137 152 138 139 127 112 112 95 91 91 72
228 198 273 260 229 230 235 217 214 230 249 248 193 180 195 213 192 199 201 182 177 175 175 183 185 187 196 208 200 188 185 181 175 176 177 173 172 173 175 174 164 158 163 162 155 156 158 158 159 157 159 163 163 167 168 163 163 164 162 163 162 158 162 165 162 164 168 172 176 175 177 184 185 188 187 186 192 192 193 196 196 196 195 193 183 176 194 179 151 140 135 127 124 107 98 94 71
222 215 245 252 229 213 229 218 219 229 237 34 110 143 185 225 230 206 195 177 176 179 176 178 180 177 184 213 210 190 186 182 177 176 175 174 172 174 178 167 151 156 170 167 163 162 159 159 160 158 162 165 165 168 168 167 166 165 164 163 164 163 164 167 167 170 174 177 181 179 181 187 189 191 189 189 193 190 193 194 191 194 191 189 188 184 182 165 138 134 141 145 143 131 123 119 85
195 218 235 243 229 221 232 221 229 243 64 57 93 130 179 213 227 204 184 174 172 167 169 178 176 172 179 206 222 199 185 181 180 178 175 176 173 174 176 163 151 163 176 169 165 163 158 160 162 160 164 166 166 169 169 170 169 166 167 165 164 165 165 168 170 174 178 180 183 183 184 189 191 193 192 194 194 188 190 193 191 195 190 193 199 187 168 156 149 150 155 166 176 166 158 160 139
191 214 238 238 227 235 251 229 227 244 33 11 49 188 228 197 158 228 164 167 164 154 161 177 181 183 181 192 221 213 188 179 182 182 177 175 176 175 172 168 162 166 178 172 163 163 159 160 165 163 165 167 168 170 170 172 171 167 169 168 166 167 168 170 173 177 178 180 185 185 187 189 191 197 196 195 196 190 190 193 192 196 195 196 197 187 180 186 194 180 165 183 191 172 176 189 200
190 192 230 237 217 213 249 274 281 196 176 256 237 205 255 117 64 64 144 155 159 157 158 170 186 197 194 193 214 217 192 180 181 183 180 172 177 179 171 172 170 168 181 174 161 166 163 161 167 167 168 170 169 172 173 172 172 169 171 172 169 171 172 173 176 178 177 182 188 185 188 192 189 193 195 194 197 192 192 195 192 196 198 196 196 190 187 196 200 193 191 201 198 191 194 197 215
175 179 218 226 216 208 231 282 296 241 207 207 226 182 134 132 97 112 148 154 163 171 166 167 178 183 194 205 209 211 195 188 184 179 181 174 178 183 175 176 175 171 180 172 161 169 166 162 169 168 170 173 171 173 174 172 173 171 173 174 172 175 176 176 178 178 179 186 190 185 188 194 190 189 190 191 196 193 193 196 193 197 199 195 199 195 192 202 200 196 207 207 205 220 206 184 212
250 195 216 218 216 220 232 260 283 257 242 5 278 225 165 165 125 137 165 166 169 179 169 161 172 176 188 203 204 204 197 194 190 180 181 179 182 188 181 180 179 174 181 175 167 170 166 166 173 170 172 175 174 175 175 175 175 172 175 177 177 179 179 179 179 181 185 186 186 186 186 191 191 192 192 191 194 193 195 199 196 199 199 195 201 199 197 206 202 199 216 216 212 229 222 194 220
259 282 299 254 226 213 208 209 253 258 225 152 234 222 172 164 149 164 183 182 176 179 171 169 183 183 185 196 197 197 194 190 190 184 183 182 186 190 185 183 178 173 184 182 172 174 171 170 174 173 175 176 175 177 175 176 178 175 177 180 181 183 183 186 185 185 190 187 187 190 189 191 190 190 194 192 192 194 195 199 198 199 201 198 201 202 200 206 206 205 217 223 220 225 231 228 230
246 265 279 271 259 229 207 219 251 252 223 183 166 165 172 156 164 179 190 193 185 181 178 182 195 189 182 189 191 188 187 189 186 183 186 188 189 187 185 187 178 172 181 184 178 181 178 173 175 175 177 177 178 179 176 178 181 180 181 180 184 186 185 190 189 184 191 193 192 195 192 193 193 192 193 191 193 196 195 197 200 201 204 201 201 203 201 205 209 210 216 227 224 213 217 231 236
223 235 240 241 231 203 204 239 253 245 257 244 153 140 203 124 134 178 187 194 192 189 183 177 190 198 188 187 189 181 181 194 192 182 186 193 190 183 183 190 179 171 181 186 184 187 183 178 178 176 177 179 181 180 176 179 184 184 183 181 185 187 185 189 188 184 193 196 194 197 196 194 193 193 193 191 196 199 196 198 202 204 206 205 204 205 204 206 210 214 218 226 228 216 216 227 237
212 216 228 237 228 211 211 229 243 238 258 273 119 141 195 124 131 172 171 193 195 188 176 159 172 196 197 190 186 176 173 186 205 187 187 195 189 179 183 189 173 170 186 188 182 188 189 184 181 178 177 179 183 183 177 178 184 185 184 184 186 188 189 191 190 189 195 196 194 196 199 199 197 196 197 197 198 200 200 201 204 206 207 208 207 206 209 209 210 217 221 221 228 232 230 232 239
Height
773 775 774 776 776 778 781 782 798 799 798 811 802 795 790 772 769 773 775 771 770 765 754 755 752 751 759 768 772 773 772 775 778 789 809 806 799 806 806 809 811 812 815 815 817 818 818 819 820 820 820 820 820 820 820 821 821 822 823 823 823 824 825 826 828 830 832 833 832 831 832 832 832 832 831 831 830 830 831 832 834 834 835 836 837 838 839 839 839 839 839 840 841 842 844 844 844
774 775 775 777 776 782 786 785 803 806 804 820 807 790 779 768 771 776 774 769 767 759 750 752 751 753 756 759 763 771 778 775 772 780 793 795 799 804 804 809 810 812 814 815 817 818 819 820 821 821 821 821 821 821 821 821 821 822 823 823 824 825 827 829 830 831 832 833 832 832 832 832 832 832 832 833 832 833 833 833 834 835 836 837 838 839 840 841 841 840 841 841 842 843 845 845 845
775 776 775 779 779 782 787 791 806 811 812 821 809 787 775 775 776 772 766 761 757 751 752 753 754 756 759 766 769 777 787 780 774 780 789 795 798 800 805 808 809 812 813 815 818 818 820 821 822 822 822 822 821 821 822 822 822 823 824 824 825 826 829 830 831 831 831 831 832 832 832 832 833 833 833 834 834 834 835 835 836 836 837 838 839 840 841 842 842 841 842 843 843 845 846 846 846
774 775 775 779 786 788 793 802 807 810 815 816 808 791 778 777 773 768 761 756 752 751 757 759 762 758 761 777 774 777 788 783 781 783 788 794 796 799 804 806 809 811 812 815 817 819 820 821 822 822 823 822 822 822 823 824 824 825 825 825 826 827 830 831 831 831 830 831 832 832 832 833 833 834 834 834 835 836 836 837 837 838 838 839 840 841 843 843 843 843 843 844 845 846 847 847 847
773 775 776 779 791 794 797 806 805 809 812 809 805 789 777 773 769 767 760 755 753 756 759 761 768 761 760 771 772 782 788 783 784 783 788 793 796 800 802 806 808 809 813 815 817 819 820 822 822 823 824 824 824 823 824 825 825 826 826 827 827 829 831 832 832 831 831 832 832 834 834 834 834 835 835 836 836 837 837 838 839 840 840 841 841 842 843 844 845 845 846 846 847 848 848 849 849
773 775 775 778 788 789 798 809 809 809 801 797 798 783 774 769 766 766 760 756 754 755 757 761 767 766 769 768 767 777 779 781 785 785 789 793 798 800 802 805 807 810 813 815 818 820 821 822 823 824 824 825 825 825 825 826 826 827 828 829 830 831 832 832 832 832 832 833 834 836 835 834 835 836 836 837 837 838 839 839 840 841 842 842 842 843 844 845 846 846 847 848 848 849 850 850 850
772 777 779 784 790 790 804 812 807 808 796 790 790 778 772 767 763 764 763 762 760 757 757 761 762 769 779 772 771 774 773 779 782 786 790 793 798 800 802 804 807 810 813 816 818 819 821 822 823 824 825 826 826 826 827 827 828 828 829 830 831 832 831 832 832 833 833 834 837 837 834 834 835 837 838 838 838 839 840 841 841 842 843 843 844 844 845 846 847 847 848 849 850 850 851 851 851
771 777 780 788 798 798 806 806 802 804 795 788 781 773 769 764 763 765 766 765 766 763 761 762 760 774 783 774 782 780 774 780 781 787 791 794 798 800 803 804 807 810 813 816 817 819 821 822 823 824 825 826 826 827 828 828 829 829 829 830 831 831 831 832 833 834 835 837 838 835 833 834 836 837 838 839 839 840 841 842 843 843 844 845 845 846 846 847 848 848 849 850 851 851 852 852 853
771 777 781 790 801 804 807 805 802 802 795 788 779 771 766 762 763 766 768 765 765 765 764 763 762 778 784 780 788 782 778 784 785 789 792 795 798 800 803 804 807 810 813 816 818 820 821 823 824 825 826 826 827 828 828 828 829 829 830 830 831 832 832 833 834 836 837 837 835 833 834 836 837 837 838 839 840 841 842 843 843 844 845 846 847 847 847 848 849 849 850 851 851 852 852 853 854
774 779 784 794 805 807 810 810 804 803 796 786 778 772 768 763 763 766 768 767 765 767 765 762 766 778 784 787 790 783 783 786 787 791 793 796 798 800 803 805 808 810 813 816 818 820 821 824 824 826 826 827 828 828 829 829 829 829 830 831 832 832 833 834 836 838 837 835 833 834 836 837 837 837 839 839 841 842 843 844 844 845 846 847 848 848 849 849 850 851 851 852 852 852 853 854 854
781 782 784 798 810 807 807 813 806 802 796 786 781 774 770 765 765 768 769 769 765 768 767 765 774 779 782 789 790 785 785 787 788 791 794 796 798 800 803 806 809 811 814 816 819 821 822 824 825 827 827 828 828 828 830 830 830 830 831 832 833 834 835 837 838 838 836 834 835 836 836 836 837 838 839 840 842 843 844 845 845 846 847 848 849 850 850 850 851 851 852 852 852 853 853 854 855
783 786 789 803 811 805 801 809 807 800 797 792 786 778 774 770 770 772 772 771 766 769 768 767 775 776 786 794 789 785 785 788 790 792 795 798 799 801 804 807 810 812 814 817 820 821 823 825 826 828 828 829 828 829 830 831 832 831 832 833 835 835 837 838 838 837 836 835 835 836 836 836 837 839 841 842 843 843 844 846 846 847 848 849 850 851 850 850 851 852 853 853 853 853 854 855 856
778 784 796 805 802 801 798 804 807 801 798 794 788 782 779 775 774 772 771 772 768 773 771 765 768 772 788 794 787 785 786 789 791 794 797 798 800 802 804 807 810 812 815 818 820 823 825 826 827 829 829 829 828 829 831 832 832 832 834 835 836 837 837 837 836 837 837 836 835 835 837 838 839 841 842 843 844 845 846 847 847 848 849 850 851 851 851 851 852 852 853 853 854 854 855 855 857
768 772 787 802 799 799 797 803 808 803 799 791 787 786 781 777 774 768 769 775 773 772 767 759 762 776 789 791 791 790 788 790 792 795 797 799 801 802 805 807 810 813 816 819 821 824 825 827 829 830 830 828 828 830 832 832 832 833 835 836 838 837 836 836 837 838 837 836 835 836 838 839 841 842 843 845 846 846 847 848 848 849 850 851 852 851 851 851 852 852 853 854 854 855 855 856 857
759 761 776 797 802 799 796 802 805 801 798 789 784 784 782 776 770 769 769 776 774 761 758 759 761 779 789 790 795 790 787 791 792 795 797 800 802 804 807 808 811 813 817 819 822 824 825 828 829 831 830 828 829 832 833 833 834 835 836 837 838 838 836 837 839 839 838 837 836 838 840 841 842 843 844 846 847 848 848 849 850 851 851 852 852 852 852 852 852 852 853 854 855 856 856 857 858
749 757 778 796 799 801 799 798 801 800 795 785 780 782 788 779 767 772 768 766 770 758 759 767 763 773 782 783 786 784 786 790 792 795 797 800 802 805 808 809 812 814 818 820 822 824 826 829 830 832 831 828 831 833 833 834 835 835 837 838 838 838 837 839 840 840 839 838 838 839 842 843 844 845 845 847 848 849 849 850 851 851 852 852 852 852 852 852 853 853 853 855 856 857 857 858 859
745 762 787 796 794 800 800 796 798 796 788 783 780 781 789 785 771 768 761 760 768 764 764 767 761 765 772 776 780 781 787 790 792 795 797 801 803 806 809 810 812 814 819 821 823 825 826 829 831 833 831 830 832 833 834 835 836 836 838 839 839 838 838 840 841 841 841 840 841 841 843 844 845 845 846 847 848 849 850 851 851 851 852 852 852 853 853 853 854 853 854 856 857 858 858 859 859
753 775 793 796 792 793 792 789 788 785 783 782 780 780 784 785 779 767 764 769 770 769 768 765 763 764 769 774 779 783 787 790 792 795 798 801 804 806 809 810 812 815 819 821 824 825 826 829 831 833 832 832 833 834 835 835 837 837 839 840 839 838 838 841 842 842 843 843 843 843 844 845 845 846 846 847 848 849 851 851 852 851 851 852 853 854 854 854 854 854 856 857 858 858 859 859 860
762 779 788 790 786 783 781 779 780 783 782 780 779 781 781 780 777 770 774 781 774 775 774 768 771 772 774 777 781 785 788 790 793 795 798 801 803 806 808 810 812 815 818 821 824 826 827 830 831 833 833 833 833 834 835 836 837 838 839 841 840 839 839 841 843 843 844 845 845 845 845 846 847 847 847 848 849 850 851 852 852 852 852 853 853 854 854 855 855 855 856 858 858 859 859 859 860
765 775 787 785 778 777 774 773 779 781 778 779 782 782 782 775 771 772 778 783 778 779 776 774 781 781 779 779 781 786 788 791 793 795 798 800 803 806 808 810 812 814 818 821 824 827 828 830 831 834 834 832 833 834 836 837 836 837 839 841 841 841 841 842 843 845 846 847 847 846 846 847 847 847 848 849 850 851 852 852 852 852 853 853 854 854 855 855 856 856 857 858 858 859 859 859 860
764 771 785 781 772 776 774 770 775 778 775 778 781 781 782 773 768 773 778 786 785 777 773 775 781 781 780 781 782 786 788 791 794 796 797 800 802 805 807 809 811 814 817 821 824 826 828 830 832 835 834 832 833 834 835 837 837 837 837 840 842 843 843 843 844 846 848 849 848 848 848 847 848 848 849 850 851 852 853 853 853 853 853 854 855 856 856 857 857 857 857 858 859 859 860 860 860
763 770 776 774 771 778 775 770 774 777 777 779 781 781 778 771 771 773 776 787 786 773 768 771 775 776 778 780 782 785 788 791 793 795 797 799 801 803 806 808 811 814 817 820 823 826 829 830 832 835 834 832 834 835 836 837 837 837 837 839 842 844 844 844 846 847 848 849 850 849 849 849 849 850 850 850 852 853 854 855 855 854 855 856 857 857 858 858 858 858 858 858 859 860 860 860 860
764 775 774 773 771 776 775 771 776 777 782 786 781 777 772 775 778 773 774 781 775 765 765 768 772 774 777 779 783 786 788 791 792 794 797 799 800 802 806 808 810 813 817 820 823 826 828 831 833 835 835 834 833 835 836 837 837 838 839 840 842 844 845 845 847 848 849 849 850 850 850 850 851 851 852 852 853 854 855 855 855 856 856 857 857 858 858 857 858 858 858 859 860 860 860 861 861
759 776 778 777 772 774 775 773 778 779 786 786 776 773 775 781 781 774 774 773 767 763 763 767 772 774 777 781 783 786 788 789 791 794 796 798 800 803 805 808 810 813 816 820 822 825 828 831 833 834 835 836 834 834 837 838 838 838 839 840 842 845 846 847 849 850 849 848 850 852 852 852 853 853 853 854 855 855 856 856 856 856 856 857 857 858 859 859 859 859 860 860 860 860 861 862 862
758 772 777 779 776 775 775 776 784 786 786 783 776 778 781 779 777 777 776 769 765 764 765 769 773 776 779 783 785 786 787 788 790 793 795 798 800 802 805 808 810 813 816 819 822 824 828 830 832 834 835 837 837 835 837 839 839 839 840 841 842 845 847 848 850 851 851 850 851 852 853 854 855 855 855 856 857 858 858 857 856 857 857 858 859 860 860 860 860 860 860 859 860 861 862 863 862
759 766 773 781 783 780 781 783 788 791 787 785 785 785 784 777 775 780 776 768 767 766 769 772 775 780 781 783 785 786 787 788 790 792 795 797 799 801 804 807 810 813 815 818 821 824 827 830 832 834 835 838 840 837 837 839 840 840 840 841 843 845 847 848 849 851 852 853 853 853 854 855 856 856 856 857 859 859 859 858 857 858 859 859 859 860 861 861 861 860 859 860 861 862 863 862 862
755 765 774 785 789 784 786 789 788 788 786 788 791 793 788 776 778 789 777 766 768 769 773 775 777 782 782 784 785 785 787 788 790 792 794 797 799 801 804 807 809 812 816 818 821 823 827 830 832 834 835 837 840 841 839 838 839 840 840 841 843 845 847 849 849 851 852 854 855 855 855 856 857 857 857 858 860 861 861 859 858 858 858 858 859 860 861 861 860 859 860 862 863 863 863 862 862
755 766 776 786 791 789 789 789 787 787 788 789 791 794 789 780 784 789 776 767 770 773 778 778 780 783 782 785 786 785 786 789 791 793 795 797 799 801 803 806 809 812 816 819 821 823 826 829 832 834 835 836 839 842 842 841 840 841 842 843 844 845 847 848 850 851 852 854 855 855 856 856 858 858 859 860 862 863 863 863 862 860 858 857 857 859 860 861 861 860 861 864 863 863 863 862 862
758 766 780 792 791 794 793 788 787 788 792 789 789 798 799 793 791 783 772 771 771 775 779 780 782 783 783 786 786 787 788 790 792 793 795 798 800 801 803 806 808 813 817 819 821 822 825 828 831 834 835 836 839 841 842 842 842 842 843 844 845 846 847 848 849 851 852 853 853 854 855 856 858 859 860 861 863 865 867 868 869 867 865 861 860 861 861 862 863 863 864 864 864 863 863 862 862
762 769 782 795 799 803 796 788 788 790 793 787 791 812 813 800 790 779 773 773 774 779 781 781 783 783 785 787 788 789 789 790 792 793 796 798 800 801 803 806 808 814 817 820 821 822 825 828 830 833 835 836 838 840 841 842 843 843 843 843 845 846 847 849 849 850 851 852 852 853 854 855 857 859 860 861 863 865 866 867 869 870 868 866 865 865 865 865 865 866 865 864 864 864 863 862 862
767 781 787 791 806 811 795 789 792 794 795 785 793 816 814 799 789 780 774 773 776 782 783 782 784 784 786 788 789 790 790 791 792 794 797 798 799 801 803 806 809 814 817 819 821 823 826 828 830 832 834 836 838 839 840 842 843 843 843 843 844 845 847 849 850 851 851 851 851 852 854 855 856 858 859 860 861 861 862 862 865 866 866 866 866 866 866 866 866 866 865 864 864 863 863 862 862
767 789 799 790 800 811 796 788 790 795 795 786 795 812 809 797 789 780 775 775 779 784 785 783 785 786 788 789 789 791 791 791 792 794 797 798 799 801 803 807 810 813 816 820 822 824 826 828 831 832 834 836 837 839 840 841 842 842 843 843 844 845 846 848 850 851 851 852 852 852 854 854 855 857 858 858 858 858 859 860 861 863 863 864 864 865 865 865 865 865 864 864 863 862 862 862 862
771 782 798 792 796 810 802 792 786 788 793 791 797 808 809 799 788 781 777 777 782 785 785 784 786 787 788 790 789 791 793 792 792 794 796 798 800 802 804 807 810 813 816 820 822 824 826 829 831 832 834 836 837 839 840 841 842 843 843 844 844 845 846 848 849 851 851 852 852 853 853 854 855 856 857 857 857 858 859 860 861 862 863 863 864 865 865 865 865 865 864 864 863 862 861 861 861
778 775 787 791 794 803 804 800 790 784 792 797 797 802 806 799 788 784 780 780 785 787 787 786 786 787 788 789 790 792 793 793 793 793 796 798 800 802 805 808 810 813 817 820 822 825 827 829 831 832 834 836 838 839 841 842 842 843 844 844 845 846 847 848 849 851 851 852 853 854 854 855 855 856 856 857 857 858 859 860 861 862 863 863 864 865 865 865 865 864 864 863 862 861 861 861 861
781 782 783 791 796 800 802 799 790 787 794 798 799 802 804 799 791 788 783 782 786 787 786 786 785 787 789 789 790 792 793 793 793 793 796 798 800 803 805 808 811 814 817 820 823 825 827 829 830 832 834 836 838 839 841 842 843 844 845 845 846 847 848 848 850 851 852 853 853 854 855 855 856 856 857 857 857 858 859 860 861 862 862 863 863 864 865 865 864 864 864 864 863 862 861 861 861
776 782 778 790 803 802 796 790 783 784 795 799 800 803 804 803 798 793 787 784 787 788 786 787 786 787 789 789 790 792 793 793 792 793 796 798 800 803 805 809 812 815 818 820 823 825 827 829 830 832 835 836 838 839 841 842 843 844 845 846 847 847 848 849 850 851 852 853 854 855 856 856 857 857 857 858 858 859 860 860 861 862 862 862 863 864 864 865 864 864 864 864 863 862 861 861 861
761 770 772 787 804 801 791 789 783 781 795 800 797 800 804 805 803 797 794 792 792 791 790 790 789 789 789 789 791 792 792 792 791 793 795 797 800 803 806 809 812 816 818 821 823 825 827 829 830 833 835 837 838 839 841 841 842 844 845 846 847 847 849 849 850 851 852 853 854 855 856 857 857 858 858 858 859 860 860 861 861 862 862 863 863 864 864 865 864 865 864 864 863 862 862 862 862
752 762 770 785 795 794 790 792 787 782 794 800 796 801 804 803 804 801 800 801 798 796 794 792 790 789 788 788 791 792 790 790 791 793 795 797 800 803 806 809 812 816 818 821 823 825 828 829 830 833 834 836 837 839 840 841 842 843 844 845 846 848 849 850 850 851 852 853 854 855 856 857 857 858 859 859 859 860 860 861 861 862 863 863 864 864 864 865 865 865 865 864 863 862 863 863 863
752 759 769 787 791 791 794 794 791 788 796 803 800 805 806 801 803 804 803 802 800 799 799 794 790 789 788 788 790 791 791 791 792 793 794 796 800 803 806 809 812 815 818 821 823 825 827 829 830 832 834 835 836 838 839 841 842 843 844 845 846 847 848 850 851 851 853 853 854 855 856 857 857 858 859 859 860 860 860 861 861 862 863 863 864 864 864 864 865 865 865 865 863 863 863 864 864
750 754 766 789 794 797 802 799 797 793 795 803 805 811 813 806 804 806 805 802 800 800 799 795 790 788 787 786 788 790 792 794 794 793 794 796 799 803 805 809 812 815 817 820 822 824 826 828 830 831 833 834 836 838 839 841 842 843 844 845 846 847 848 850 851 852 853 854 855 856 856 857 857 858 859 859 860 860 860 861 861 862 863 863 864 864 865 865 865 865 865 865 864 863 863 864 864
749 748 760 782 788 792 794 793 797 799 801 803 809 824 825 812 811 812 807 803 803 801 798 796 792 786 785 785 786 788 790 792 794 794 794 796 799 802 805 809 812 814 816 819 821 823 825 827 830 831 832 834 835 837 839 840 841 843 844 845 846 847 848 850 851 852 853 854 855 856 856 857 858 858 859 860 860 860 861 861 862 863 863 864 864 864 865 865 866 866 865 865 865 864 864 864 864
756 744 747 767 776 781 785 789 799 814 819 807 810 836 835 815 811 814 812 809 806 803 800 798 794 788 787 788 788 788 789 790 792 793 794 796 799 802 805 808 811 813 815 818 820 822 825 827 829 831 832 833 835 837 838 840 841 842 843 844 846 847 848 850 850 852 853 854 855 856 857 857 858 859 859 860 860 860 861 862 862 863 864 864 864 865 865 865 866 866 866 866 866 865 865 864 864
765 741 735 754 764 772 782 788 800 818 821 805 807 830 836 824 814 809 811 812 808 805 802 798 795 792 790 789 788 788 788 790 790 791 793 796 799 802 805 807 809 812 814 817 819 821 824 826 828 830 832 833 835 837 838 839 841 842 843 844 846 847 848 849 850 851 852 853 855 856 857 858 858 859 859 860 860 861 861 862 863 863 864 864 865 865 865 866 867 867 867 866 866 866 866 865 865
762 737 736 751 756 767 781 788 798 805 806 806 806 814 827 830 818 807 807 812 811 807 803 798 796 794 791 789 788 787 787 788 790 792 793 796 800 802 804 806 807 810 813 815 818 821 823 826 828 830 832 833 835 836 838 839 840 841 843 844 845 847 848 849 850 851 852 853 854 856 857 858 858 859 859 860 860 861 861 862 863 863 865 865 865 866 866 867 868 868 868 867 867 867 867 866 867
747 730 735 744 747 757 770 785 793 792 804 817 807 804 823 828 814 808 810 813 814 810 803 799 797 795 792 789 788 786 785 786 787 790 792 794 798 802 803 804 806 808 811 814 817 820 823 825 827 829 831 833 834 836 838 839 840 841 842 843 844 846 847 848 850 851 852 853 854 855 856 857 858 859 859 860 860 861 862 862 863 864 865 865 866 867 867 868 868 869 869 869 869 868 868 868 869
734 726 732 737 742 747 756 775 783 785 803 813 802 801 820 828 818 813 817 816 812 808 802 797 796 795 792 789 787 785 785 785 786 788 790 793 796 800 802 803 805 807 810 813 816 819 822 824 827 829 830 833 834 836 837 838 839 841 842 843 844 845 846 848 850 851 852 853 853 855 856 857 858 858 859 860 860 861 862 863 863 864 865 866 867 867 868 869 869 869 870 870 870 870 870 870 870
726 730 739 743 745 745 751 760 766 788 805 795 786 791 806 824 823 809 807 805 799 801 801 798 796 795 792 789 786 785 785 785 786 787 789 792 795 798 801 802 804 807 809 813 816 819 821 824 826 828 830 832 833 835 837 838 839 841 841 843 844 845 846 847 849 850 851 853 853 854 855 856 857 858 859 859 860 861 862 863 863 864 865 866 867 867 868 869 869 869 870 870 871 871 871 871 871
726 737 749 759 759 758 764 765 772 800 809 784 769 775 792 817 818 800 793 789 788 794 797 796 796 795 792 789 785 784 784 784 785 787 788 790 794 796 799 801 803 806 809 812 815 818 820 823 825 827 830 831 833 835 836 837 839 840 841 842 843 844 846 847 848 850 851 852 853 854 855 856 856 857 858 859 860 861 861 862 863 864 865 865 866 867 867 868 869 869 870 870 871 872 872 872 872
735 745 758 773 781 785 791 791 789 797 800 787 773 777 795 808 802 790 786 783 784 787 789 790 791 791 792 790 785 783 783 783 785 787 788 789 792 795 797 800 803 806 809 811 814 817 819 822 824 826 829 830 832 834 835 837 838 839 841 842 843 844 845 846 847 849 850 851 852 853 854 855 856 856 857 858 859 860 861 862 863 864 864 865 866 867 867 868 868 869 870 871 871 872 873 873 873
743 754 764 778 793 808 814 803 796 796 797 792 780 786 805 806 792 780 778 779 779 781 785 786 786 787 790 788 785 784 782 783 785 786 788 789 791 794 796 799 803 806 808 810 812 815 818 821 823 826 827 829 831 832 834 836 837 839 840 842 843 844 844 846 847 848 849 850 851 852 854 854 855 856 857 857 858 859 860 861 862 863 864 865 865 866 867 868 868 869 870 871 871 872 873 873 874
740 744 753 768 780 800 812 802 802 811 809 798 790 797 806 803 791 776 771 776 776 779 784 785 787 786 786 787 786 784 783 783 785 785 787 789 790 793 795 798 803 806 807 809 812 814 816 819 822 824 826 828 830 831 833 835 836 838 840 841 842 843 844 845 846 847 848 850 851 852 853 854 855 856 856 857 858 858 859 860 861 862 863 864 864 865 866 867 868 869 870 870 871 872 872 873 874
732 732 751 764 760 772 790 788 789 802 811 804 798 801 796 787 783 773 770 777 778 781 785 787 791 789 787 790 788 785 784 782 784 786 786 788 790 792 794 797 801 805 806 807 810 813 815 818 821 823 825 827 828 830 832 834 835 837 839 840 842 843 844 845 846 847 848 849 850 851 852 853 854 855 856 857 857 858 859 860 861 862 863 864 864 865 866 867 868 868 869 870 870 871 872 873 874
734 741 756 750 736 750 778 788 783 789 809 808 795 798 795 787 787 778 774 782 783 784 787 788 792 791 791 792 788 786 785 783 784 785 786 787 789 791 793 796 799 803 806 807 810 812 814 816 819 821 824 826 828 829 831 833 834 836 837 839 841 842 843 844 845 846 848 849 850 851 852 853 853 854 855 856 857 858 859 860 861 862 862 863 864 865 866 866 867 868 868 869 870 871 871 872 873
742 751 746 733 733 745 765 791 798 797 810 812 801 803 801 799 801 790 782 787 788 788 789 790 791 792 793 791 788 787 785 784 784 784 786 787 788 790 792 795 798 801 804 806 809 811 812 815 817 819 822 824 826 828 829 832 833 834 836 838 839 841 842 844 844 846 847 848 849 850 851 852 853 854 855 856 857 858 859 859 860 861 862 863 864 864 865 866 867 867 868 868 869 870 870 871 872
734 738 729 733 755 762 765 787 803 805 813 816 811 807 800 800 803 796 791 790 788 789 791 793 792 790 791 790 787 786 784 785 785 784 786 786 787 790 791 793 796 800 803 805 808 810 811 814 815 817 820 822 824 827 828 830 832 833 835 836 838 840 841 842 843 845 846 847 849 850 850 852 852 853 854 855 856 857 858 859 860 861 861 862 863 864 865 865 866 867 867 868 869 869 870 870 871
730 734 732 734 747 757 764 773 781 795 810 812 812 812 802 795 791 788 789 786 783 787 790 792 791 787 787 787 785 784 784 785 784 784 785 784 786 788 790 793 795 799 803 804 807 809 809 812 814 816 819 820 823 825 827 829 831 832 834 835 837 839 840 841 842 844 845 846 848 849 850 851 852 852 853 854 855 856 857 858 859 860 861 861 862 863 864 865 865 866 867 867 868 868 869 870 870
742 748 749 745 742 745 758 766 763 776 796 799 809 819 802 783 779 781 782 779 777 779 783 789 793 789 786 784 783 783 784 784 783 782 783 784 784 787 790 793 795 797 801 804 806 808 809 811 812 815 817 819 821 823 825 828 830 831 833 835 836 838 839 841 842 843 844 845 847 848 849 850 851 852 853 854 855 855 856 857 858 859 860 861 862 862 863 864 864 865 865 866 866 867 868 868 869
738 745 747 746 744 748 767 779 764 759 773 779 796 816 800 775 774 777 776 775 773 773 779 788 794 791 787 784 782 781 782 784 782 781 782 783 784 786 790 792 795 797 800 802 804 806 808 809 811 814 816 818 820 822 824 827 829 831 832 834 836 837 839 840 841 842 844 845 846 847 848 849 849 851 852 853 854 855 856 856 857 858 859 860 861 862 863 863 863 864 864 865 865 865 866 867 868